QPF
0.00 0.01 0.02 0.02 0.03 0.02 0.01 0.02 0.02 0.03 0.02 0.03 0.05 0.05 0.04 0.05 0.06 0.05 0.04 0.04 0.05 0.05 0.05 0.05 0.05 0.06 0.03 0.02 0.01 0.01 0.03 0.04 0.04 0.04 0.04 0.04 0.04 0.03 0.02 0.02 0.01 0.01 0.01
0.02 0.03 0.06 0.10 0.11 0.05 0.02 0.03 0.04 0.04 0.04 0.06 0.08 0.08 0.08 0.10 0.09 0.08 0.08 0.09 0.09 0.08 0.07 0.08 0.07 0.06 0.04 0.02 0.01 0.01 0.02 0.03 0.04 0.04 0.03 0.03 0.03 0.03 0.03 0.04 0.03 0.02 0.02
0.03 0.04 0.08 0.11 0.10 0.05 0.03 0.04 0.04 0.04 0.06 0.09 0.09 0.07 0.09 0.10 0.08 0.08 0.10 0.09 0.08 0.08 0.09 0.09 0.09 0.07 0.05 0.05 0.04 0.02 0.01 0.02 0.03 0.03 0.02 0.01 0.01 0.01 0.01 0.02 0.02 0.01 0.01
0.04 0.04 0.04 0.04 0.04 0.03 0.04 0.05 0.04 0.04 0.05 0.05 0.06 0.06 0.07 0.07 0.08 0.11 0.10 0.07 0.05 0.05 0.06 0.08 0.09 0.07 0.06 0.05 0.06 0.04 0.02 0.02 0.02 0.02 0.01 0.01 0.01 0.01 0.01 0.01 0.01 0.01 0.01
0.04 0.03 0.04 0.04 0.04 0.04 0.04 0.05 0.05 0.04 0.04 0.04 0.04 0.04 0.06 0.08 0.10 0.12 0.09 0.05 0.04 0.06 0.06 0.06 0.07 0.06 0.05 0.03 0.04 0.04 0.03 0.02 0.02 0.02 0.01 0.02 0.02 0.01 0.01 0.01 0.01 0.01 0.01
0.02 0.02 0.03 0.04 0.04 0.04 0.05 0.05 0.06 0.05 0.04 0.02 0.02 0.03 0.04 0.05 0.05 0.05 0.05 0.04 0.05 0.06 0.06 0.06 0.07 0.07 0.05 0.03 0.02 0.03 0.03 0.02 0.02 0.02 0.02 0.02 0.02 0.02 0.02 0.01 0.01 0.01 0.01
0.01 0.02 0.03 0.03 0.03 0.04 0.05 0.08 0.07 0.05 0.03 0.02 0.02 0.02 0.02 0.02 0.02 0.02 0.04 0.05 0.06 0.06 0.06 0.06 0.06 0.07 0.07 0.04 0.03 0.03 0.02 0.02 0.02 0.03 0.02 0.02 0.01 0.02 0.02 0.02 0.02 0.02 0.01
0.01 0.01 0.01 0.02 0.04 0.04 0.04 0.05 0.05 0.05 0.03 0.03 0.03 0.02 0.01 0.01 0.01 0.02 0.02 0.04 0.06 0.07 0.08 0.08 0.07 0.06 0.06 0.06 0.05 0.03 0.03 0.03 0.03 0.03 0.02 0.02 0.02 0.02 0.02 0.02 0.03 0.02 0.02
0.01 0.01 0.01 0.03 0.03 0.04 0.04 0.05 0.06 0.07 0.05 0.05 0.04 0.02 0.01 0.01 0.01 0.02 0.02 0.01 0.03 0.06 0.07 0.07 0.08 0.07 0.06 0.06 0.05 0.02 0.02 0.03 0.03 0.02 0.02 0.02 0.02 0.03 0.02 0.02 0.02 0.03 0.02
0.00 0.01 0.03 0.03 0.03 0.04 0.06 0.06 0.08 0.09 0.07 0.06 0.06 0.04 0.03 0.03 0.02 0.02 0.02 0.02 0.02 0.03 0.04 0.05 0.05 0.06 0.06 0.05 0.05 0.04 0.05 0.05 0.04 0.03 0.02 0.01 0.01 0.01 0.02 0.03 0.04 0.04 0.03
0.01 0.02 0.04 0.05 0.05 0.04 0.06 0.09 0.12 0.12 0.10 0.09 0.07 0.06 0.05 0.05 0.04 0.03 0.02 0.03 0.03 0.04 0.04 0.05 0.05 0.05 0.06 0.06 0.06 0.05 0.07 0.07 0.05 0.04 0.04 0.03 0.03 0.03 0.03 0.04 0.05 0.04 0.04
0.03 0.05 0.07 0.08 0.06 0.05 0.06 0.07 0.07 0.08 0.08 0.08 0.10 0.13 0.12 0.09 0.05 0.04 0.04 0.03 0.04 0.04 0.05 0.05 0.06 0.05 0.06 0.07 0.06 0.04 0.05 0.06 0.05 0.03 0.04 0.03 0.05 0.04 0.04 0.05 0.06 0.06 0.05
0.05 0.06 0.07 0.07 0.06 0.05 0.05 0.05 0.06 0.06 0.07 0.09 0.11 0.15 0.11 0.07 0.05 0.04 0.05 0.06 0.05 0.06 0.05 0.04 0.04 0.04 0.05 0.06 0.06 0.05 0.05 0.04 0.03 0.04 0.03 0.02 0.03 0.03 0.03 0.04 0.06 0.07 0.09
0.08 0.10 0.10 0.08 0.06 0.06 0.06 0.05 0.05 0.06 0.07 0.06 0.07 0.08 0.06 0.04 0.03 0.04 0.06 0.07 0.08 0.07 0.07 0.06 0.06 0.07 0.07 0.06 0.07 0.07 0.05 0.03 0.04 0.05 0.06 0.06 0.05 0.04 0.05 0.06 0.07 0.10 0.12
0.06 0.06 0.05 0.06 0.06 0.06 0.06 0.06 0.05 0.05 0.06 0.05 0.05 0.05 0.04 0.05 0.05 0.06 0.06 0.07 0.08 0.06 0.07 0.07 0.06 0.05 0.04 0.04 0.05 0.06 0.06 0.05 0.05 0.06 0.06 0.06 0.06 0.06 0.06 0.05 0.04 0.06 0.06
0.04 0.04 0.03 0.04 0.04 0.05 0.05 0.05 0.04 0.05 0.05 0.04 0.03 0.04 0.05 0.06 0.06 0.07 0.07 0.07 0.06 0.05 0.05 0.05 0.04 0.04 0.04 0.04 0.06 0.05 0.05 0.05 0.06 0.05 0.06 0.07 0.09 0.08 0.07 0.06 0.07 0.07 0.07
0.03 0.03 0.03 0.03 0.03 0.03 0.04 0.04 0.04 0.04 0.04 0.04 0.04 0.04 0.04 0.05 0.05 0.05 0.05 0.05 0.06 0.06 0.05 0.05 0.04 0.04 0.03 0.04 0.05 0.05 0.05 0.06 0.06 0.06 0.06 0.08 0.09 0.09 0.07 0.07 0.07 0.07 0.08
0.02 0.02 0.03 0.04 0.05 0.05 0.05 0.05 0.05 0.05 0.04 0.05 0.06 0.05 0.04 0.04 0.03 0.03 0.04 0.05 0.06 0.05 0.04 0.04 0.04 0.03 0.04 0.06 0.07 0.07 0.07 0.07 0.07 0.08 0.09 0.09 0.09 0.10 0.11 0.10 0.08 0.07 0.07
0.02 0.03 0.05 0.07 0.08 0.08 0.08 0.08 0.08 0.08 0.08 0.05 0.06 0.05 0.04 0.04 0.04 0.03 0.03 0.04 0.05 0.05 0.05 0.05 0.04 0.05 0.06 0.07 0.08 0.06 0.05 0.06 0.06 0.07 0.09 0.09 0.07 0.09 0.11 0.10 0.09 0.08 0.07
0.03 0.05 0.07 0.09 0.12 0.11 0.11 0.11 0.12 0.16 0.15 0.10 0.07 0.06 0.06 0.05 0.04 0.03 0.04 0.04 0.04 0.04 0.04 0.04 0.04 0.05 0.07 0.07 0.06 0.07 0.06 0.05 0.05 0.05 0.07 0.08 0.09 0.10 0.11 0.10 0.09 0.09 0.08
0.05 0.07 0.11 0.12 0.17 0.17 0.14 0.13 0.14 0.18 0.17 0.12 0.08 0.07 0.06 0.05 0.04 0.04 0.03 0.04 0.05 0.06 0.05 0.04 0.03 0.04 0.05 0.07 0.07 0.07 0.06 0.05 0.04 0.05 0.05 0.06 0.08 0.10 0.11 0.10 0.09 0.08 0.09
0.08 0.10 0.12 0.10 0.13 0.21 0.17 0.13 0.11 0.13 0.13 0.09 0.07 0.07 0.06 0.05 0.04 0.04 0.03 0.04 0.05 0.06 0.05 0.04 0.03 0.03 0.04 0.04 0.04 0.04 0.04 0.05 0.04 0.05 0.05 0.06 0.08 0.08 0.09 0.07 0.06 0.06 0.06
0.11 0.13 0.11 0.10 0.11 0.13 0.10 0.07 0.07 0.09 0.11 0.09 0.06 0.05 0.04 0.05 0.05 0.04 0.04 0.05 0.06 0.06 0.05 0.04 0.03 0.03 0.03 0.03 0.03 0.03 0.03 0.04 0.03 0.04 0.05 0.06 0.08 0.08 0.06 0.05 0.04 0.03 0.03
0.12 0.14 0.13 0.09 0.08 0.06 0.05 0.05 0.05 0.05 0.07 0.07 0.04 0.03 0.04 0.05 0.05 0.05 0.05 0.07 0.08 0.06 0.04 0.03 0.02 0.02 0.02 0.01 0.01 0.02 0.02 0.04 0.04 0.04 0.05 0.06 0.05 0.06 0.06 0.06 0.04 0.03 0.03
0.10 0.12 0.10 0.07 0.05 0.04 0.04 0.05 0.05 0.05 0.06 0.06 0.04 0.02 0.03 0.03 0.03 0.04 0.05 0.05 0.06 0.06 0.04 0.03 0.03 0.03 0.02 0.02 0.01 0.01 0.02 0.02 0.03 0.04 0.05 0.05 0.05 0.05 0.05 0.05 0.05 0.03 0.03
0.07 0.08 0.07 0.05 0.03 0.03 0.03 0.04 0.06 0.06 0.06 0.05 0.05 0.03 0.03 0.04 0.05 0.04 0.05 0.06 0.06 0.07 0.06 0.05 0.04 0.03 0.04 0.03 0.02 0.03 0.03 0.03 0.04 0.05 0.06 0.06 0.05 0.06 0.06 0.06 0.04 0.03 0.02
MSLP
1009.77 1010.04 1010.33 1010.62 1010.93 1011.26 1011.63 1012.05 1012.53 1013.04 1013.57 1014.10 1014.60 1015.05 1015.44 1015.77 1016.05 1016.28 1016.50 1016.71 1016.94 1017.18 1017.43 1017.70 1017.97 1018.26 1018.54 1018.84 1019.14 1019.45 1019.77 1020.09 1020.40 1020.66 1020.87 1021.01 1021.06 1021.03 1020.93 1020.78 1020.62 1020.47 1020.36
1009.24 1009.54 1009.85 1010.16 1010.47 1010.79 1011.15 1011.56 1012.04 1012.57 1013.15 1013.73 1014.29 1014.80 1015.24 1015.60 1015.89 1016.12 1016.34 1016.55 1016.79 1017.05 1017.34 1017.66 1017.98 1018.30 1018.61 1018.91 1019.20 1019.49 1019.79 1020.08 1020.37 1020.65 1020.88 1021.06 1021.16 1021.18 1021.12 1021.00 1020.85 1020.68 1020.55
1008.51 1008.84 1009.18 1009.52 1009.86 1010.19 1010.56 1010.98 1011.47 1012.04 1012.66 1013.30 1013.92 1014.48 1014.97 1015.36 1015.67 1015.91 1016.13 1016.35 1016.60 1016.89 1017.22 1017.58 1017.94 1018.30 1018.64 1018.95 1019.23 1019.50 1019.77 1020.04 1020.32 1020.60 1020.86 1021.08 1021.24 1021.33 1021.33 1021.25 1021.11 1020.95 1020.78
1007.59 1007.94 1008.33 1008.72 1009.11 1009.48 1009.88 1010.33 1010.86 1011.46 1012.12 1012.81 1013.49 1014.10 1014.63 1015.06 1015.39 1015.64 1015.87 1016.09 1016.36 1016.67 1017.03 1017.44 1017.85 1018.25 1018.62 1018.94 1019.22 1019.48 1019.72 1019.98 1020.24 1020.53 1020.81 1021.07 1021.28 1021.43 1021.48 1021.45 1021.35 1021.19 1021.01
1006.51 1006.89 1007.34 1007.81 1008.26 1008.70 1009.15 1009.65 1010.22 1010.85 1011.56 1012.29 1013.01 1013.67 1014.24 1014.69 1015.04 1015.31 1015.54 1015.78 1016.05 1016.39 1016.78 1017.22 1017.67 1018.12 1018.52 1018.86 1019.16 1019.41 1019.65 1019.89 1020.14 1020.42 1020.71 1020.99 1021.24 1021.43 1021.53 1021.55 1021.48 1021.34 1021.17
1005.39 1005.80 1006.31 1006.85 1007.38 1007.90 1008.42 1008.97 1009.57 1010.25 1010.98 1011.75 1012.50 1013.19 1013.78 1014.26 1014.63 1014.91 1015.16 1015.40 1015.68 1016.03 1016.45 1016.91 1017.41 1017.89 1018.33 1018.71 1019.03 1019.30 1019.53 1019.76 1020.00 1020.26 1020.54 1020.83 1021.09 1021.30 1021.44 1021.50 1021.46 1021.36 1021.20
1004.34 1004.77 1005.33 1005.95 1006.56 1007.15 1007.73 1008.32 1008.96 1009.66 1010.41 1011.19 1011.96 1012.67 1013.28 1013.78 1014.17 1014.46 1014.71 1014.96 1015.25 1015.61 1016.04 1016.53 1017.06 1017.57 1018.06 1018.48 1018.83 1019.11 1019.35 1019.58 1019.80 1020.04 1020.30 1020.57 1020.83 1021.05 1021.21 1021.30 1021.30 1021.24 1021.11
1003.48 1003.92 1004.52 1005.18 1005.85 1006.50 1007.12 1007.74 1008.40 1009.10 1009.84 1010.62 1011.39 1012.11 1012.74 1013.25 1013.65 1013.97 1014.23 1014.49 1014.78 1015.14 1015.58 1016.08 1016.63 1017.18 1017.70 1018.16 1018.55 1018.86 1019.12 1019.34 1019.56 1019.78 1020.01 1020.25 1020.49 1020.70 1020.88 1020.99 1021.04 1021.02 1020.95
1002.87 1003.31 1003.93 1004.62 1005.32 1005.99 1006.62 1007.24 1007.88 1008.56 1009.28 1010.04 1010.79 1011.50 1012.14 1012.67 1013.10 1013.43 1013.71 1013.98 1014.28 1014.64 1015.08 1015.60 1016.16 1016.73 1017.28 1017.78 1018.21 1018.56 1018.84 1019.08 1019.28 1019.48 1019.69 1019.90 1020.12 1020.33 1020.51 1020.65 1020.74 1020.78 1020.77
1002.57 1003.00 1003.61 1004.29 1004.98 1005.62 1006.23 1006.82 1007.41 1008.04 1008.72 1009.43 1010.16 1010.86 1011.50 1012.05 1012.49 1012.86 1013.16 1013.45 1013.77 1014.13 1014.57 1015.09 1015.66 1016.25 1016.83 1017.36 1017.83 1018.22 1018.54 1018.79 1019.01 1019.20 1019.40 1019.59 1019.79 1019.99 1020.18 1020.35 1020.49 1020.59 1020.66
1002.57 1002.97 1003.54 1004.17 1004.81 1005.40 1005.94 1006.46 1006.98 1007.54 1008.16 1008.81 1009.49 1010.17 1010.80 1011.36 1011.83 1012.23 1012.57 1012.88 1013.22 1013.60 1014.05 1014.57 1015.14 1015.75 1016.35 1016.92 1017.43 1017.87 1018.23 1018.52 1018.76 1018.97 1019.16 1019.35 1019.55 1019.75 1019.95 1020.15 1020.34 1020.50 1020.63
1002.77 1003.14 1003.65 1004.22 1004.77 1005.28 1005.73 1006.16 1006.60 1007.07 1007.60 1008.18 1008.81 1009.44 1010.05 1010.61 1011.11 1011.53 1011.90 1012.26 1012.62 1013.02 1013.48 1014.02 1014.61 1015.23 1015.86 1016.47 1017.03 1017.52 1017.94 1018.28 1018.56 1018.79 1019.00 1019.20 1019.40 1019.61 1019.83 1020.05 1020.28 1020.49 1020.68
1003.09 1003.42 1003.86 1004.35 1004.81 1005.22 1005.59 1005.92 1006.26 1006.63 1007.07 1007.57 1008.12 1008.70 1009.27 1009.82 1010.31 1010.76 1011.16 1011.55 1011.94 1012.38 1012.87 1013.42 1014.04 1014.69 1015.36 1016.02 1016.63 1017.18 1017.66 1018.06 1018.39 1018.66 1018.90 1019.12 1019.33 1019.55 1019.78 1020.02 1020.27 1020.51 1020.74
1003.42 1003.71 1004.09 1004.50 1004.88 1005.21 1005.48 1005.73 1005.98 1006.26 1006.60 1007.01 1007.47 1007.97 1008.49 1008.99 1009.47 1009.92 1010.34 1010.76 1011.19 1011.66 1012.18 1012.78 1013.43 1014.12 1014.84 1015.55 1016.22 1016.84 1017.38 1017.84 1018.23 1018.55 1018.82 1019.06 1019.28 1019.50 1019.73 1019.98 1020.23 1020.48 1020.73
1003.66 1003.92 1004.26 1004.61 1004.93 1005.20 1005.41 1005.60 1005.78 1005.99 1006.24 1006.55 1006.92 1007.32 1007.76 1008.19 1008.63 1009.05 1009.47 1009.91 1010.37 1010.88 1011.45 1012.09 1012.79 1013.53 1014.30 1015.07 1015.81 1016.49 1017.10 1017.62 1018.06 1018.43 1018.73 1018.98 1019.21 1019.42 1019.63 1019.86 1020.09 1020.34 1020.58
1003.76 1004.01 1004.32 1004.64 1004.94 1005.18 1005.38 1005.55 1005.69 1005.85 1006.03 1006.24 1006.51 1006.81 1007.14 1007.48 1007.85 1008.23 1008.63 1009.06 1009.54 1010.09 1010.70 1011.39 1012.15 1012.95 1013.78 1014.61 1015.41 1016.15 1016.82 1017.39 1017.88 1018.27 1018.59 1018.84 1019.06 1019.25 1019.43 1019.63 1019.83 1020.04 1020.26
1003.70 1003.95 1004.26 1004.59 1004.90 1005.17 1005.39 1005.57 1005.71 1005.84 1005.97 1006.12 1006.29 1006.48 1006.69 1006.94 1007.22 1007.53 1007.90 1008.32 1008.81 1009.38 1010.03 1010.77 1011.58 1012.43 1013.31 1014.19 1015.04 1015.83 1016.54 1017.16 1017.67 1018.08 1018.40 1018.64 1018.84 1019.00 1019.14 1019.29 1019.45 1019.63 1019.82
1003.50 1003.76 1004.10 1004.46 1004.82 1005.15 1005.44 1005.67 1005.85 1005.99 1006.09 1006.19 1006.28 1006.37 1006.49 1006.64 1006.83 1007.07 1007.39 1007.79 1008.28 1008.86 1009.54 1010.31 1011.15 1012.05 1012.96 1013.88 1014.76 1015.57 1016.31 1016.93 1017.45 1017.86 1018.17 1018.40 1018.56 1018.69 1018.79 1018.89 1019.01 1019.16 1019.32
1003.23 1003.51 1003.88 1004.30 1004.73 1005.15 1005.52 1005.82 1006.06 1006.24 1006.35 1006.42 1006.46 1006.50 1006.54 1006.61 1006.73 1006.92 1007.19 1007.57 1008.04 1008.63 1009.32 1010.10 1010.95 1011.85 1012.78 1013.70 1014.58 1015.39 1016.12 1016.74 1017.25 1017.65 1017.95 1018.15 1018.29 1018.38 1018.45 1018.52 1018.61 1018.73 1018.89
1002.96 1003.26 1003.67 1004.15 1004.66 1005.16 1005.61 1006.01 1006.32 1006.55 1006.69 1006.77 1006.80 1006.81 1006.81 1006.85 1006.93 1007.09 1007.34 1007.70 1008.16 1008.73 1009.41 1010.17 1011.00 1011.88 1012.77 1013.66 1014.51 1015.29 1015.99 1016.59 1017.08 1017.46 1017.73 1017.92 1018.04 1018.12 1018.17 1018.23 1018.32 1018.44 1018.60
1002.77 1003.09 1003.53 1004.05 1004.62 1005.19 1005.72 1006.19 1006.57 1006.85 1007.05 1007.17 1007.22 1007.24 1007.26 1007.31 1007.40 1007.56 1007.81 1008.16 1008.62 1009.16 1009.81 1010.52 1011.30 1012.11 1012.94 1013.75 1014.53 1015.25 1015.90 1016.46 1016.92 1017.27 1017.54 1017.72 1017.84 1017.93 1018.00 1018.07 1018.17 1018.32 1018.50
1002.73 1003.05 1003.51 1004.06 1004.65 1005.25 1005.83 1006.34 1006.77 1007.10 1007.35 1007.52 1007.63 1007.72 1007.79 1007.89 1008.03 1008.24 1008.52 1008.89 1009.33 1009.85 1010.44 1011.08 1011.77 1012.48 1013.20 1013.91 1014.59 1015.23 1015.80 1016.31 1016.73 1017.08 1017.34 1017.54 1017.69 1017.81 1017.91 1018.03 1018.18 1018.37 1018.59
1002.87 1003.19 1003.64 1004.18 1004.77 1005.36 1005.93 1006.45 1006.89 1007.26 1007.55 1007.78 1007.96 1008.13 1008.30 1008.49 1008.72 1009.01 1009.34 1009.74 1010.18 1010.67 1011.19 1011.74 1012.31 1012.90 1013.48 1014.06 1014.62 1015.15 1015.65 1016.10 1016.50 1016.84 1017.12 1017.36 1017.56 1017.73 1017.90 1018.09 1018.30 1018.55 1018.83
1003.20 1003.52 1003.94 1004.44 1004.98 1005.53 1006.05 1006.53 1006.94 1007.30 1007.61 1007.89 1008.15 1008.41 1008.69 1009.00 1009.34 1009.72 1010.13 1010.57 1011.02 1011.47 1011.93 1012.38 1012.83 1013.27 1013.70 1014.14 1014.57 1015.00 1015.42 1015.82 1016.20 1016.55 1016.86 1017.15 1017.42 1017.68 1017.93 1018.20 1018.49 1018.80 1019.14
1003.71 1004.01 1004.39 1004.84 1005.30 1005.76 1006.19 1006.58 1006.94 1007.26 1007.56 1007.86 1008.17 1008.52 1008.91 1009.33 1009.79 1010.28 1010.77 1011.25 1011.72 1012.15 1012.54 1012.89 1013.22 1013.52 1013.82 1014.12 1014.44 1014.77 1015.12 1015.48 1015.85 1016.22 1016.59 1016.95 1017.30 1017.64 1017.99 1018.34 1018.71 1019.08 1019.48
1004.34 1004.63 1004.97 1005.34 1005.71 1006.06 1006.37 1006.66 1006.91 1007.16 1007.42 1007.71 1008.06 1008.46 1008.93 1009.46 1010.02 1010.60 1011.17 1011.71 1012.19 1012.60 1012.95 1013.22 1013.45 1013.65 1013.83 1014.02 1014.24 1014.50 1014.80 1015.15 1015.53 1015.94 1016.36 1016.79 1017.22 1017.65 1018.08 1018.51 1018.95 1019.38 1019.81
Thickness
5799 5796 5793 5791 5786 5781 5777 5773 5769 5766 5762 5758 5753 5749 5746 5746 5746 5745 5745 5743 5742 5740 5739 5738 5737 5736 5734 5734 5733 5731 5730 5727 5727 5724 5722 5723 5724 5724 5724 5723 5723 5722 5721
5795 5795 5793 5790 5787 5783 5779 5775 5772 5768 5765 5762 5758 5754 5751 5748 5748 5746 5744 5743 5742 5741 5739 5738 5737 5735 5734 5733 5732 5731 5728 5727 5726 5723 5718 5715 5718 5722 5725 5724 5723 5723 5722
5797 5796 5793 5791 5788 5785 5782 5779 5775 5771 5767 5764 5758 5754 5750 5747 5745 5744 5743 5743 5742 5741 5739 5738 5737 5736 5734 5732 5732 5731 5729 5726 5725 5725 5720 5714 5711 5716 5721 5724 5724 5724 5723
5802 5799 5796 5792 5790 5789 5785 5781 5777 5773 5769 5765 5760 5755 5750 5746 5746 5746 5744 5743 5742 5741 5739 5738 5737 5736 5734 5733 5732 5731 5730 5728 5724 5723 5723 5721 5719 5715 5714 5720 5724 5724 5724
5806 5803 5801 5799 5794 5790 5785 5781 5777 5773 5770 5767 5763 5757 5753 5750 5748 5746 5743 5742 5742 5741 5739 5738 5737 5735 5734 5733 5732 5731 5730 5729 5727 5724 5722 5720 5719 5718 5715 5714 5718 5721 5724
5808 5805 5803 5799 5794 5790 5785 5780 5776 5772 5770 5766 5763 5759 5754 5750 5746 5744 5742 5741 5740 5739 5739 5738 5737 5735 5734 5733 5733 5732 5730 5729 5728 5726 5724 5722 5719 5717 5716 5714 5715 5717 5721
5808 5805 5801 5798 5794 5790 5785 5780 5776 5772 5769 5766 5763 5760 5756 5752 5748 5745 5743 5741 5739 5738 5738 5738 5736 5735 5734 5733 5732 5731 5730 5729 5728 5727 5726 5725 5724 5722 5719 5716 5715 5715 5718
5809 5807 5805 5801 5796 5791 5786 5782 5777 5773 5769 5766 5763 5760 5757 5753 5750 5748 5745 5743 5741 5740 5739 5738 5736 5735 5734 5733 5732 5731 5731 5730 5729 5728 5726 5725 5724 5723 5722 5719 5715 5712 5714
5810 5808 5806 5802 5797 5792 5787 5783 5777 5772 5769 5765 5762 5759 5756 5753 5751 5748 5746 5744 5743 5741 5740 5738 5736 5735 5734 5733 5732 5731 5730 5729 5729 5728 5727 5725 5725 5724 5722 5721 5719 5714 5710
5808 5807 5805 5801 5797 5793 5788 5782 5777 5772 5768 5765 5761 5759 5756 5754 5752 5749 5746 5745 5743 5742 5740 5738 5737 5735 5734 5733 5732 5730 5730 5728 5728 5727 5726 5725 5724 5723 5722 5721 5719 5718 5714
5806 5805 5802 5799 5795 5791 5786 5781 5776 5771 5767 5764 5760 5758 5756 5754 5752 5749 5748 5746 5744 5742 5740 5739 5737 5735 5734 5733 5731 5730 5729 5728 5727 5726 5725 5725 5724 5722 5721 5720 5718 5717 5715
5804 5802 5799 5795 5790 5787 5784 5781 5776 5772 5768 5764 5761 5758 5756 5753 5751 5749 5747 5746 5743 5741 5740 5739 5737 5735 5734 5732 5730 5729 5728 5727 5726 5725 5724 5724 5723 5721 5720 5719 5718 5716 5715
5799 5797 5794 5790 5788 5786 5783 5780 5776 5772 5768 5764 5760 5757 5754 5752 5750 5748 5747 5745 5742 5741 5739 5738 5736 5735 5733 5732 5730 5729 5728 5727 5726 5725 5724 5723 5721 5720 5719 5718 5717 5716 5715
5793 5792 5790 5788 5788 5785 5781 5777 5774 5771 5767 5763 5759 5755 5754 5751 5749 5748 5746 5744 5742 5739 5738 5737 5735 5734 5732 5731 5729 5728 5726 5726 5725 5725 5724 5723 5721 5720 5718 5717 5716 5714 5712
5787 5788 5786 5785 5784 5780 5777 5774 5771 5768 5765 5761 5757 5755 5753 5751 5748 5746 5744 5742 5740 5739 5737 5736 5734 5733 5731 5730 5728 5727 5725 5724 5723 5723 5722 5722 5721 5719 5718 5716 5714 5712 5709
5783 5785 5784 5783 5780 5778 5775 5772 5769 5766 5764 5760 5756 5754 5751 5749 5747 5744 5742 5740 5738 5736 5735 5733 5732 5730 5729 5728 5726 5725 5724 5722 5721 5720 5719 5719 5718 5717 5715 5714 5712 5710 5707
5779 5781 5781 5780 5780 5777 5774 5769 5766 5763 5761 5758 5754 5751 5749 5746 5744 5742 5740 5738 5736 5733 5732 5730 5729 5727 5727 5725 5724 5722 5721 5719 5718 5716 5715 5715 5715 5713 5712 5711 5708 5706 5705
5774 5776 5776 5776 5776 5773 5769 5766 5762 5759 5756 5753 5750 5748 5746 5743 5742 5740 5737 5735 5733 5730 5728 5727 5725 5724 5723 5722 5720 5719 5716 5714 5713 5712 5710 5709 5708 5708 5707 5705 5703 5701 5700
5768 5770 5771 5772 5770 5767 5765 5761 5757 5754 5750 5748 5746 5745 5743 5740 5738 5736 5734 5732 5729 5726 5724 5722 5721 5719 5718 5717 5716 5714 5712 5709 5707 5706 5705 5704 5703 5702 5701 5699 5696 5694 5694
5762 5763 5764 5764 5762 5760 5760 5755 5751 5748 5745 5743 5742 5741 5739 5737 5735 5733 5730 5727 5724 5722 5720 5717 5716 5714 5713 5712 5711 5709 5707 5704 5702 5700 5699 5698 5697 5696 5694 5692 5690 5687 5685
5755 5756 5756 5755 5754 5754 5752 5747 5743 5741 5740 5738 5737 5735 5733 5732 5730 5728 5725 5722 5719 5716 5714 5711 5710 5708 5706 5705 5704 5703 5701 5698 5696 5693 5692 5691 5690 5688 5686 5685 5683 5680 5678
5747 5748 5748 5745 5745 5746 5744 5740 5737 5736 5734 5732 5730 5728 5727 5726 5724 5722 5719 5716 5714 5710 5707 5704 5702 5701 5699 5698 5696 5695 5694 5691 5689 5686 5684 5682 5681 5680 5677 5675 5673 5671 5668
5737 5738 5739 5737 5736 5736 5735 5731 5730 5729 5727 5725 5723 5721 5719 5717 5716 5714 5712 5709 5707 5704 5700 5697 5694 5692 5691 5689 5688 5687 5685 5683 5681 5678 5676 5674 5672 5670 5668 5665 5663 5661 5658
5726 5727 5728 5727 5726 5725 5724 5723 5722 5722 5720 5718 5715 5712 5710 5708 5707 5705 5703 5701 5698 5695 5693 5689 5686 5684 5682 5681 5679 5678 5676 5674 5671 5669 5667 5664 5662 5660 5657 5655 5652 5649 5646
5715 5717 5718 5717 5716 5716 5716 5715 5714 5714 5713 5710 5707 5704 5702 5700 5697 5694 5691 5690 5687 5686 5684 5681 5678 5676 5673 5670 5669 5668 5667 5665 5663 5660 5658 5655 5652 5649 5646 5643 5640 5637 5635
5705 5707 5706 5706 5707 5707 5706 5706 5706 5707 5705 5701 5698 5695 5693 5691 5688 5684 5679 5676 5675 5674 5673 5671 5669 5666 5663 5661 5660 5658 5656 5654 5653 5651 5647 5643 5640 5637 5634 5632 5629 5626 5623